Theta_e
282 281 281 281 281 281 281 281 280 280 279 279 278 278 278 277 277 277 280 282 282 282 282 283 284 286 288 290 292 294 295 295 296 295 295 294 293 294 297 299 300 300
282 281 281 281 281 281 281 281 280 279 279 279 278 278 277 277 277 277 279 281 281 281 281 282 283 286 288 289 291 294 295 295 295 295 295 294 293 293 296 298 300 300
282 281 281 281 281 281 281 282 281 280 279 279 278 278 277 276 276 276 278 279 280 280 280 281 283 285 287 288 290 293 294 295 295 295 295 295 293 293 295 298 300 300
282 281 281 281 281 281 281 282 282 281 280 279 278 278 277 276 275 275 277 279 279 279 279 280 282 285 287 288 289 291 293 294 295 295 295 295 294 293 294 297 299 300
282 281 281 281 282 282 282 282 282 281 280 278 278 277 277 276 275 275 276 278 279 278 278 280 282 284 287 288 288 290 292 294 294 294 294 294 295 293 293 295 299 300
281 281 280 281 282 282 282 282 282 281 279 278 277 277 277 276 275 275 275 276 278 278 278 279 281 284 286 287 287 289 291 293 294 294 293 293 294 294 293 294 298 301
281 280 280 281 282 282 281 281 280 280 278 277 276 276 276 275 275 275 275 276 278 278 277 278 280 283 286 287 286 287 290 293 294 294 293 292 293 293 293 294 297 300
280 279 280 282 283 282 281 280 279 278 277 276 275 276 275 275 275 275 274 275 277 278 277 277 278 283 286 286 285 286 289 292 293 294 293 292 292 293 293 294 296 299
279 279 281 282 283 282 281 280 279 277 276 274 274 274 275 275 275 275 274 275 276 277 277 277 279 282 285 285 285 286 289 291 292 293 293 292 292 293 293 293 295 298
279 280 281 282 282 281 279 278 278 277 275 273 273 273 273 273 274 274 273 274 276 277 277 277 278 281 284 285 285 285 288 291 291 292 293 292 292 293 293 294 294 296
279 280 281 282 282 281 279 278 278 276 274 273 273 272 272 272 272 272 272 272 274 275 276 276 277 280 283 285 285 285 288 290 291 291 292 292 293 293 293 293 293 295
279 280 281 282 282 281 279 277 276 274 271 272 274 273 271 271 271 271 271 271 272 273 274 275 277 280 283 285 286 285 287 290 291 291 292 292 292 292 292 293 293 294
279 280 281 282 281 280 279 277 276 276 273 271 272 272 271 271 271 271 271 271 271 273 273 275 277 280 282 284 286 286 286 289 291 292 292 292 292 292 292 292 292 293
280 280 281 282 281 280 280 278 277 276 275 271 269 270 271 272 272 271 271 270 271 272 272 273 276 280 282 284 285 286 286 288 290 291 291 292 291 292 292 293 292 293
280 281 281 281 281 280 279 278 275 273 273 273 271 270 271 272 272 271 271 271 271 272 272 272 274 278 282 284 284 285 285 286 288 289 290 290 291 291 292 293 292 293
280 281 281 281 280 280 279 279 277 276 274 273 273 272 271 271 272 272 271 272 272 273 273 273 273 276 280 283 284 284 285 285 287 289 289 290 291 292 293 293 293 293
280 280 281 281 281 280 280 279 277 276 274 272 272 272 273 273 272 272 272 272 273 273 273 273 274 277 281 283 284 284 284 284 286 288 289 290 291 291 292 293 293 293
280 280 281 281 281 281 280 279 277 275 274 273 273 272 272 273 273 273 273 274 274 274 274 274 275 277 281 283 283 283 283 283 285 287 289 290 290 291 292 293 293 293
280 280 281 281 281 281 280 279 278 276 274 274 274 274 273 273 274 274 274 275 275 275 275 275 276 278 280 282 282 283 283 283 284 285 287 289 290 291 292 293 293 293
280 280 281 281 281 281 280 279 277 275 274 274 274 274 274 274 274 275 275 276 275 275 275 276 277 279 280 281 281 281 282 283 283 284 286 287 289 290 291 292 293 293
280 280 281 281 281 281 280 279 276 275 274 274 273 274 274 274 275 276 277 277 277 276 275 276 278 280 280 281 281 281 282 283 283 284 285 286 288 289 291 292 293 293
280 280 281 281 281 281 279 278 276 275 274 273 273 274 275 275 276 277 277 278 278 277 277 276 278 280 281 281 281 281 282 282 283 283 284 285 287 289 290 291 292 292
279 280 280 280 280 280 279 277 275 274 274 273 272 273 275 276 276 277 278 279 279 279 278 278 279 280 281 281 282 281 281 281 282 283 283 285 286 288 290 290 291 292
279 280 280 280 279 279 278 277 274 272 272 273 272 273 275 276 277 278 279 279 280 280 280 279 280 281 282 282 282 281 281 281 282 282 283 284 286 287 289 290 290 292
279 280 279 278 278 278 277 275 272 271 271 272 273 273 275 277 277 277 279 280 280 281 281 280 280 281 282 282 282 282 281 282 283 283 283 284 285 287 289 290 290 292
279 279 279 278 277 277 276 274 272 271 271 272 273 275 276 277 277 277 278 279 280 281 282 282 281 281 282 282 282 282 282 283 283 284 284 285 285 287 288 289 290 291
Wind_Speed
45 45 46 46 47 48 49 51 51 51 52 51 52 53 52 50 46 45 43 40 38 37 35 35 35 33 31 30 29 30 34 37 39 37 35 35 34 35 35 34 37 45
47 47 47 47 48 49 50 51 51 52 52 51 52 52 51 49 46 43 41 38 37 35 32 33 35 32 30 31 29 29 33 37 36 35 34 34 34 34 34 32 34 41
49 49 49 49 49 50 51 52 52 52 51 51 51 50 50 48 45 42 40 37 36 34 32 34 36 32 29 30 28 28 31 34 35 35 34 33 34 34 33 32 32 38
50 50 50 50 50 51 52 53 53 52 51 50 50 50 49 48 45 43 40 36 35 34 34 37 37 32 29 30 28 26 29 32 33 33 33 33 33 34 33 31 31 35
50 51 50 50 51 52 53 53 53 52 51 50 50 50 49 48 45 43 41 36 35 36 37 38 37 32 29 30 28 25 26 29 31 31 33 34 33 34 34 31 29 31
51 51 51 51 52 52 53 53 53 52 51 50 50 50 48 47 45 42 40 37 35 36 37 36 35 33 31 30 29 25 25 27 28 29 30 32 32 32 33 31 29 29
52 52 52 53 53 53 53 53 53 51 50 49 50 50 48 45 44 42 39 37 35 36 36 34 34 33 32 31 29 25 24 24 26 28 29 30 30 30 32 31 29 28
53 53 52 53 54 53 53 52 52 50 49 50 49 49 48 45 43 41 39 36 34 36 36 34 33 33 33 32 30 26 23 22 23 25 27 29 29 29 31 30 28 28
52 52 53 54 54 54 53 53 53 51 48 49 48 49 49 45 42 40 36 34 32 34 36 35 32 32 33 34 31 26 23 22 22 24 25 27 29 29 29 29 28 28
52 52 52 54 55 54 53 53 54 52 48 47 48 50 50 45 42 41 36 32 30 30 31 31 29 30 34 36 33 28 24 21 21 24 27 27 28 28 28 28 29 28
51 52 53 54 55 55 53 53 54 51 49 50 49 49 50 46 41 40 37 33 30 28 28 29 29 31 35 37 35 30 26 23 22 23 27 27 27 28 28 27 29 29
51 52 53 55 56 56 55 55 54 48 47 53 53 48 46 45 41 39 39 37 34 33 33 34 34 33 36 38 37 33 29 27 25 23 25 27 26 27 28 27 28 30
51 53 54 55 56 56 55 54 53 49 45 49 53 48 43 42 41 39 38 39 38 36 35 35 35 34 35 38 39 35 32 30 28 26 27 29 29 29 30 29 28 30
52 54 55 56 56 57 57 55 55 56 51 46 47 47 44 41 41 40 39 38 37 36 35 33 32 32 33 36 39 38 34 32 30 28 27 29 30 30 31 30 29 30
53 54 56 57 57 57 57 55 52 52 52 47 43 43 45 43 41 41 40 38 37 35 33 30 29 30 31 32 36 37 36 35 33 30 28 29 31 32 32 31 29 30
54 56 56 57 57 56 56 54 51 48 48 48 45 43 43 42 42 41 39 38 38 36 33 29 28 30 32 31 32 34 36 37 37 34 33 32 33 33 32 31 30 30
54 56 57 56 56 56 55 55 54 51 49 48 48 46 43 40 40 40 39 38 37 36 34 31 30 30 30 30 30 31 33 37 38 38 37 36 34 34 33 31 29 29
54 55 56 56 55 56 56 54 54 53 51 49 46 45 43 40 38 38 37 36 36 34 33 32 30 28 27 27 28 29 31 34 38 40 40 38 36 35 34 32 30 29
53 55 55 55 55 55 55 55 54 53 52 51 47 43 42 39 38 37 36 35 35 33 32 31 29 27 25 25 26 27 28 30 35 40 42 41 39 37 36 35 32 30
53 54 55 55 55 56 56 55 55 54 52 51 48 44 42 39 36 35 34 33 34 33 33 32 29 26 24 24 25 25 26 27 31 35 39 41 41 39 39 37 35 32
52 54 55 56 56 57 57 56 55 54 53 50 46 42 40 38 35 32 32 31 32 32 32 32 30 26 23 24 25 25 24 26 30 33 37 40 41 41 41 40 38 35
52 54 55 56 57 58 59 58 56 54 52 49 46 41 38 36 32 30 30 31 30 30 31 32 30 27 24 24 25 25 24 25 29 33 37 40 42 42 42 42 40 38
51 53 55 56 57 57 59 58 57 55 51 47 45 43 39 34 31 29 29 30 31 31 31 31 30 26 25 25 25 25 26 27 29 31 35 39 42 41 41 42 42 40
50 52 54 55 56 57 58 58 56 54 51 45 42 42 39 34 31 30 30 30 31 31 31 31 30 26 24 25 24 23 24 26 29 30 33 36 39 39 39 41 43 40
48 51 53 54 55 56 56 56 54 51 48 43 39 37 35 33 32 32 33 32 32 31 30 30 30 26 24 24 23 22 24 26 27 29 32 35 37 38 38 40 42 39
47 49 52 52 53 54 54 54 51 48 45 41 37 34 32 31 33 35 35 33 32 32 31 29 28 25 23 22 21 22 25 26 27 29 31 33 35 38 39 41 42 38
Wind_Direction
330 329 329 329 327 324 323 322 319 316 315 313 312 310 307 305 302 298 297 293 288 287 283 279 277 273 275 280 279 277 274 269 270 274 280 285 280 273 269 268 270 263
330 330 330 330 327 325 324 322 319 315 314 314 312 311 308 306 303 300 297 293 286 284 285 282 276 270 272 279 278 275 274 270 268 272 278 282 282 276 272 270 268 267
331 331 331 331 328 326 325 324 321 317 315 315 314 313 310 306 304 301 297 290 284 283 284 281 273 266 268 276 279 278 275 271 269 271 275 279 282 279 273 272 267 264
331 332 332 332 329 327 326 325 323 321 317 315 315 315 312 307 303 301 296 288 282 281 280 277 270 264 264 269 277 280 274 271 268 268 274 277 280 281 276 273 267 261
331 332 332 332 330 329 328 327 325 323 319 316 316 316 313 308 304 301 297 288 279 278 278 275 269 263 261 265 272 277 272 269 267 265 272 276 277 281 278 273 268 259
331 332 333 332 330 329 328 328 327 323 319 316 316 316 314 310 306 302 297 289 279 276 279 278 271 261 258 262 268 273 271 266 264 262 269 275 275 278 277 273 267 256
332 333 333 333 331 330 329 328 327 323 319 317 316 316 315 312 308 303 297 291 281 275 278 279 273 261 254 260 267 271 271 267 262 258 265 273 275 277 275 272 267 256
333 333 333 333 332 331 329 328 326 322 319 318 317 317 317 313 311 306 299 293 284 275 276 277 272 261 253 259 266 268 269 269 264 256 260 269 272 275 275 272 268 257
334 334 333 334 334 332 331 330 328 325 321 319 316 317 318 314 313 310 302 295 288 278 275 274 270 260 254 258 262 263 266 270 271 263 258 265 271 275 275 271 270 259
334 334 333 335 335 334 332 331 330 326 321 319 316 315 317 316 313 312 308 301 294 287 282 279 273 261 253 255 257 256 259 263 273 272 263 264 269 275 277 272 272 264
334 334 335 336 336 335 334 333 332 327 321 321 320 315 315 317 315 310 306 301 293 287 281 274 268 259 251 251 252 251 252 253 261 268 266 267 267 272 277 273 273 268
335 336 337 338 337 336 336 334 332 327 318 315 319 320 316 317 317 308 301 299 295 287 278 270 265 260 252 250 249 248 249 249 251 255 259 266 268 269 274 273 272 269
337 338 339 339 338 336 336 334 331 328 323 315 316 322 322 317 317 311 303 302 301 296 290 281 273 264 256 252 249 247 247 246 247 248 250 258 263 265 270 270 271 268
338 340 340 340 339 337 337 336 333 330 330 325 319 321 324 321 319 317 310 304 300 297 294 289 281 270 260 255 251 248 246 244 244 245 247 255 260 261 265 266 267 266
340 341 342 340 339 338 336 336 333 328 327 329 326 324 325 324 321 318 312 306 302 299 293 289 283 274 265 259 253 249 246 244 243 243 243 249 254 256 260 262 263 264
341 341 342 341 339 338 337 336 335 333 332 332 331 328 326 323 320 317 313 308 306 303 297 288 279 272 265 261 256 251 248 244 242 242 241 243 249 252 256 259 259 262
343 341 341 341 339 339 339 338 337 337 337 335 332 329 326 321 317 316 313 310 307 304 301 293 283 275 267 263 259 251 248 247 244 244 243 244 247 251 255 259 258 261
343 341 340 341 341 341 341 340 338 337 337 337 333 329 325 320 316 314 311 309 307 303 301 296 289 281 270 264 260 252 248 248 245 245 246 246 248 251 255 260 259 262
343 340 341 342 343 343 341 341 341 340 339 339 335 329 325 320 316 314 310 309 307 304 302 298 291 283 272 263 259 252 250 251 248 247 248 248 249 251 254 258 258 262
343 340 341 344 345 345 344 343 343 342 340 340 336 330 326 322 317 313 309 308 308 306 304 301 293 283 273 264 258 253 251 252 250 249 249 249 249 249 251 255 256 259
343 341 343 346 347 347 345 344 344 343 342 341 337 331 328 324 319 315 310 309 309 307 304 300 294 287 276 265 257 253 253 254 251 249 247 246 247 247 248 252 254 257
344 343 345 348 350 349 346 344 344 344 343 341 337 333 330 326 323 318 314 312 311 309 304 298 294 289 280 269 258 251 251 253 252 251 248 245 244 245 247 250 253 255
346 346 347 349 351 350 347 345 345 344 344 342 338 335 333 330 327 324 321 319 316 313 307 301 295 289 281 273 261 250 246 247 249 250 249 244 242 243 245 248 251 252
348 347 350 351 352 351 348 346 344 342 341 340 339 336 334 333 333 331 329 327 323 320 314 306 298 291 283 274 261 251 248 250 250 250 247 242 239 240 244 247 249 250
349 349 352 354 353 351 349 345 342 339 338 339 339 337 335 335 338 337 334 331 328 326 322 311 299 291 284 274 260 250 249 249 250 249 246 241 235 235 240 244 246 247
351 351 354 355 354 352 350 346 343 340 338 339 339 338 336 337 341 341 336 334 333 332 329 317 302 290 281 272 260 250 246 245 246 245 243 241 236 235 238 242 244 245